sat.trackr.live / text

‹ back to catalog

STARLINK-5572

NORAD 55378 · 2023-013AZ

PAYLOAD ACTIVE UNKNOWN

§ Identity

Operator
Country
US
Launch date
2023-01-26
Launch site
AFETR
Launch vehicle
Mass (kg)
RCS (m²)

Purposes: comms

External: N2YO · Heavens-Above · Gunter

§ Orbital elements

Epoch: 2026-05-24T18:36:34.826112Z

Period
94.27 min
Inclination
43.0013°
Eccentricity
0.0001346
Mean motion
15.27579433 rev/d
Perigee alt
482.1 km
Apogee alt
484.0 km
Semi-major
6,861.2 km
B*
5.0273e-5
RAAN
251.4839°
Arg perigee
263.6532°
Mean anomaly
96.4166°
Rev number
18,310

§ Raw data

STARLINK-55721 55378U 23013AZ  26144.77540308  .00001121  00000+0  50273-4 0  99932 55378  43.0013 251.4839 0001346 263.6532  96.4166 15.27579433183105

JSON: /api/v1/satellites/55378 · /tle

For live sub-satellite position, see the globe view (requires WebGL).

§ Visibility from observer

Set your observer location to see the next 7 days of passes ≥ 10°. The values pass through the URL so the page stays shareable.

No JS? Fill the form by hand. The geolocation button needs JavaScript.